Regional Weather Roundup
Issued by NWS

Home | Current Version | Previous Version | Text Only | Print | Product List | Glossary Off
Versions: 1 2 3 4 5 6 7 8 9 10 11 12 13 14 15 16 17 18 19 20 21 22 23 24 25 26 27 28 29 30 31 32 33 34 35 36 37 38 39 40 41 42 43 44 45 46 47 48 49 50

000
ASUS45 KSLC 271010
RWRUT

UTAH REGIONAL WEATHER ROUNDUP
NATIONAL WEATHER SERVICE SALT LAKE CITY UT
300 AM MST SAT DEC 27 2014

UTZ001>011-023>025-271100-

NORTHERN UTAH

CITY           SKY/WX    TMP DP  RH WIND       PRES   REMARKS
BRIGHAM CITY   PTCLDY    13   9  86 CALM      30.30R
HILL AFB       CLOUDY    18   9  68 SE10      30.26R WCI   6
LOGAN          CLEAR      9   5  84 CALM      30.29R
OGDEN          CLOUDY    16  10  77 S7        30.27R WCI   6
PROVO AIRPORT  PTCLDY    16  12  86 E3        30.28R
SALT LAKE CITY PTCLDY    19  16  88 CALM      30.28R
VERNAL         LGT SNOW  17  15  92 CALM      30.20R FOG
WENDOVER       PTCLDY    27  10  50 NW18      30.29R WCI  13
HEBER CITY     CLOUDY     9   5  85 SE5       30.22R WCI   0
WEST JORDAN    CLEAR     18  10  73 CALM      30.28R

$$

UTZ012>022-026-027-271100-

SOUTHERN/CENTRAL UTAH

CITY           SKY/WX    TMP DP  RH WIND       PRES   REMARKS
BLANDING       CLEAR     15  11  85 NW5       30.18R WCI   7
BRYCE CANYON   PTCLDY    -2  -7  79 NW7       30.11R WCI -15
CEDAR CITY     CLOUDY    14   8  77 N5        30.20R WCI   6
DELTA          PTCLDY    14  12  92 CALM      30.28R
MILFORD        CLOUDY    14  10  84 N3        30.24R
MOAB/CYNLANDS  CLOUDY    18  12  77 CALM      30.19R
PRICE          CLEAR     17   5  59 W7        30.15R WCI   8
ST GEORGE      MOSUNNY   27   9  46 CALM      30.27R
KANAB          CLEAR     23   7  50 NE6       30.23R WCI  16

$$

REGIONAL REPORTS     COLORADO/ARIZONA

CITY           SKY/WX    TMP DP  RH WIND       PRES   REMARKS
CRAIG, CO      CLOUDY    -1  -5  82 NW5       30.16R WCI -11
GRAND JUNCTION CLEAR      8   2  76 CALM      30.19R
RIFLE          PTCLDY    11   6  81 CALM      30.18R
MONTROSE       MOCLDY    14  12  92 CALM      30.17R
CORTEZ         CLEAR      6   3  87 E7        30.11R WCI  -6
PAGE, AZ       CLOUDY    31   6  35 W7        30.18R WCI  24
GRAND CANYON   CLEAR      8   4  83 CALM      30.11R
KINGMAN        CLEAR     25  14  63 E10       30.20R WCI  15
FLAGSTAFF      CLEAR      6   1  80 CALM      30.06R

$$

REGIONAL REPORTS    NEVADA/IDAHO/WYOMING

CITY           SKY/WX    TMP DP  RH WIND       PRES   REMARKS
LAS VEGAS, NV  CLEAR     41   9  26 NW15      30.25R
ELY            CLEAR      2  -1  88 S6        30.24R WCI  -9
ELKO           CLEAR     14  10  84 NW3       30.30R
POCATELLO, ID  CLOUDY    22  20  92 SW10      30.27R WCI  11
BURLEY         CLEAR     17  10  74 SW6       30.27S WCI   9
EVANSTON, WY   CLOUDY     8   5  87 SW5       30.14R WCI   0
ROCK SPRINGS   CLEAR      4   1  88 SW16      30.10R WCI -15

$$



USA.gov is the U.S. government's official web portal to all federal, state and local government web resources and services.